Погода в Бухаре

Погода в Бухаре : погода сейчас, прогноз погоды и архив. Всё, что Вы хотите узнать о погоде в Бухаре!

Поиск расширенной информации на нашем сайте:

Другие новости

Новости СМИ2

Главная страница сайта

Новости сайта

03.07.2017

Напоминаем, что на нашем специализированном сайте Метеоцентр.Азия вы можете получить высокодетализированные автоматические прогнозы погоды по пунктам России, СНГ и мира в авиационном формате (включающие направление и скорость ветра, видимость, явления погоды, количество и форму облачности, нижнюю и верхнюю границу облачности).


Погода в Бухаре - сегодня

Время (UTC), дата Ветер
(°,м/с) 
Видим.   Явления Облачность Т
(°С)
Тd
(°С)
f(%) Тe
(°С)
Pmin
(гПа)
dP
(гПа)
Po
(мм)
O2
(г/м3)
Тmin Tmax R s Состояние
почвы
18 17.11.17 тихо ()   4000 м  дымка  ясно 
+1.8 -2.3 74 +2  1027.2  -0.4  749  300    +12.4       
21 17.11.17 тихо ()   4000 м  дымка  ясно 
+1.2 -2.6 76 +1  1026.6  -0.6  749  301           
00 18.11.17 тихо ()   4000 м  дымка  ясно 
+0.2 -3.5 76 1027.5  0.8  749  302           
03 18.11.17 тихо ()   4000 м  дымка  1/0 верхняя 
[Ci fib]
-1.8 -3.9 86 -2  1028.8  750  305           
06 18.11.17 200 (Ю) 10 км    3/1 1000 м верхняя 
[Sc|Ci fib]
+9 -0.9 50 +9  1029.5  1.8  751  293  -2.2         
09 18.11.17 230 (ЮЗ) 10 км    3/0 верхняя 
[Ci fib]
+14.3 -3 30 +14  1028.4  -0.6  751  288           
12 18.11.17 250 (З) 10 км    10/0 
[Sc]
+14 -1.4 35 +15  1029.1  0.7  751  288           
15 18.11.17 340 (С) 10 км    10/5 1500 м кучево-дожд., средняя 
[Cb calv|Ac trans]
+9.6 -1.4 46 +10  1030.9  1.3  752  293    +15.2       
18 18.11.17 360 (С) 10 км    8/8 1500 м 
[Sc]
+6.4 -2.7 52 +5  1032.2  0.9  753  297    +15.2       
21 18.11.17 340 (С) 10 км    ясно 
+2.8 -1.1 75 1032.1  -0.5  753  300           
00 19.11.17 360 (С) 10 км    ясно 
+1.1 -1.5 83 1031.8  -0.3  752  302           
03 19.11.17 340 (С) 10 км    ясно 
+0.7 -1.6 85 1032.6  0.5  758  305           
06 19.11.17 360 (С) 10 км    ясно 
+9.1 +0 53 +9  1031.9  0.2  753  294  +0.5         
09 19.11.17 020 (С) 10 км    ясно 
+14.3 -0.2 37 +14  1029.3  -2  752  288           
12 19.11.17 360 (С) 10 км    ясно 
+13.5 +0.2 40 +13  1028.2  -1.2  751  288           
15 19.11.17 360 (С) 10 км    ясно 
+5.8 -0.2 65 +5  1028.5  -0.4  750  296    +14.9       
18 19.11.17 340 (С) 10 км    ясно 
+3 -0.8 76 +2  1028.1  -0.6  750  299    +14.9       
21 19.11.17 360 (С) 10 км    ясно 
+1.1 -1.5 83 1027.2  -1.1  749  301           
00 20.11.17 тихо ()   4000 м  дымка  ясно 
-0.2 -2.3 86 -0  1027.2  -0.3  749  302           
03 20.11.17 тихо ()   2000 м  дымка  ясно 
-1.4 -2.6 92 -1  1027.2  6.7             
06 20.11.17 090 (В) 10 км    ясно 
+9.7 +0 51 +10  1026.6  0.6  749  292  -2.6         
09 20.11.17 090 (В) 10 км    ясно 
+15.7 -1.7 30 +16  1024.4  -1.6  748  285           
12 20.11.17 050 (СВ) 10 км    ясно 
+15.4 -3 28 +16  1023.5  -0.9  747  285           
15 20.11.17 020 (С) 4000 м  мгла  ясно 
+7.7 -3 47 +7  1024.3  0.1  747  293    +17       
18 20.11.17 090 (В) 10 км    ясно 
+4.8 -2.2 60 +4  1023.8  -0.8  747  296    +17       
Время (UTC), дата Ветер
(°,м/с) 
Видим.   Явления Облачность Т
(°С)
Тd
(°С)
f(%) Тe
(°С)
Pmin
(гПа)
dP
(гПа)
Po
(мм)
O2
(г/м3)
Тmin Tmax R s Состояние
почвы

Для получения пояснительной информации подведите курсор к названию столбца.

ПОГОДА в Бухаре - архив

Всё, что Вы хотите узнать о погоде в Бухаре - удобно и подробно!

Выберите нужную дату (начиная с 1 января 2015* года) и нажмите кнопку "Найти".
Будут отображены архивные сводки погоды по пункту Бухара, начиная с указанной даты.


Отображать данные в формате CSV (для использования в таблицах Excel)


Внимание! Наш архив погоды предназначен исключительно для личного некоммерческого использования в познавательных целях. Если Вам необходимы официальные справки о состоянии погоды (для производственных, юридических, коммерческих и т.п. целей), обращайтесь в органы Росгидромета.

*Примечание: данная дата относится к архиву по метеостанциям СССР (Россия, СНГ, Балтия).
Архив по метеостанциям Зарубежной Европы и Азии (кроме Китая) хранится 10 дней, по другим регионам земного шара (Китай, Африка, Америка, Австралия, Океания) - 1 день.

Бухара - район местоположения метеостанции


Название, широта, долгота, высота метеостанции:
Бухара 39.7°ш. 64.6°д. 226 м над ур. моря [Узбекистан]

Дополнительная информация

В oтличие oт бoльшинства пoгoдных сайтoв мы публикуем пoдрoбную метеoинфoрмацию в детальнoм прoфессиoнальнoм фoрмате.

Характеристики температуры и влажнoсти вoздуха измеряются на высoте 2 м в тени вдали oт зданий и деревьев.
Скoрoсть ветра измеряется на высoте 10 м (на урoвне рoста челoвека скoрoсть ветра ниже в 1.5-2 раза). Если метеoстанция нахoдится в гoрoде или в лесу, тo скoрoсть ветра занижена на 2-4 м/с пo сравнению с oткрытым местoм. Скoрoсть ветра над акватoриями крупных рек и oзёр, а также на вершинах хoлмoв на 2-5 м/с выше, чем в oбычных услoвиях.
Атмoсфернoе давление в разных тoчках местнoсти мoжет значительнo oтличаться oт давления на метеoстанции, в зависимoсти oт услoвий рельефа (при пoдъёме на 10 м давление пoнижается примернo на 1 мм рт.ст.).